Marysville, CA

4:53 AM PST on February 27, 2017 (GMT -0800)
Beale Air Force Base

Weather History for KBAB - June, 2013

Change the Weather History Date:

Thursday, June 27, 2013

  Actual Average Record
Temperature  
Mean Temperature 80 °F -  
Max Temperature 96 °F 89 °F 104 °F (2003)
Min Temperature 64 °F 61 °F 51 °F (2012)
Cooling Degree Days 15    
Growing Degree Days 30 (Base 50)    
Moisture  
Dew Point 61 °F    
Average Humidity 58    
Maximum Humidity 98    
Minimum Humidity 18    
Precipitation  
Precipitation 0.00 in - - ()
Sea Level Pressure  
Sea Level Pressure 30.19 in    
Wind  
Wind Speed 6 mph (West)    
Max Wind Speed 8 mph    
Max Gust Speed -    
Visibility 10 miles    
Events      
Averages and records for this station are not official NWS values.
T = Trace of Precipitation, MM = Missing Value Source: NWS Daily Summary

Daily Weather History Graph

Daily Weather History Graph

Search for Another Location

Airport or City:

Trip Planner

Search our weather history database for the weather conditions in past years. The results will help you decide how hot, cold, wet, or windy it might be!

Date:

Astronomy

Jun. 27, 2013 Rise Set
Actual Time 5:41 AM PDT 8:35 PM PDT
Civil Twilight 5:09 AM PDT 9:08 PM PDT
Nautical Twilight 4:28 AM PDT 9:48 PM PDT
Astronomical Twilight 3:42 AM PDT 10:35 PM PDT
Moon 11:38 PM PDT 10:46 AM PDT
Length of Visible Light 15h 58m
Length of Day
14h 54m
Waning Gibbous, 75% of the Moon is Illuminated
Jun 27
Waning Gibbous
Jun 29
Last Quarter
Jul 8
New
Jul 15
First Quarter
Jul 22
Full

Hourly Weather History & Observations

Time (PDT) Temp. Heat Index Dew Point Humidity Pressure Visibility Wind Dir Wind Speed Gust Speed Precip Events Conditions
12:58 AM 70.7 °F - 62.1 °F 74% 30.21 in 10.0 mi ESE 6.9 mph - N/A   Clear
1:58 AM 70.2 °F - 61.7 °F 74% 30.22 in 10.0 mi East 5.8 mph - N/A   Clear
2:58 AM 68.4 °F - 61.9 °F 80% 30.23 in 10.0 mi ESE 3.5 mph - N/A   Clear
3:58 AM 66.6 °F - 62.2 °F 86% 30.22 in 10.0 mi SE 5.8 mph - N/A   Clear
4:58 AM 64.9 °F - 63.3 °F 94% 30.23 in 10.0 mi SE 6.9 mph - N/A   Clear
5:58 AM 64.4 °F - 63.9 °F 98% 30.24 in 10.0 mi South 4.6 mph - N/A   Clear
6:58 AM 66.9 °F - 64.2 °F 91% 30.03 in 10.0 mi South 4.6 mph - N/A   Clear
7:58 AM 70.7 °F - 62.4 °F 75% 30.26 in 10.0 mi WSW 4.6 mph - N/A   Clear
8:58 AM 73.9 °F - 63.1 °F 69% 30.06 in 10.0 mi West 5.8 mph - N/A   Clear
9:58 AM 77.9 °F - 63.0 °F 60% 30.05 in 10.0 mi NNW 8.1 mph - N/A   Clear
10:58 AM 81.1 °F 82.5 °F 63.5 °F 55% 30.05 in 10.0 mi NW 6.9 mph - N/A   Clear
11:58 AM 84.6 °F 85.4 °F 62.6 °F 48% 30.27 in 10.0 mi NW 4.6 mph - N/A   Clear
12:58 PM 88.2 °F 88.7 °F 62.4 °F 42% 30.26 in 10.0 mi West 6.9 mph - N/A   Clear
1:58 PM 90.3 °F 90.5 °F 61.2 °F 38% 30.25 in 10.0 mi West 6.9 mph - N/A   Clear
2:58 PM 92.3 °F 91.6 °F 59.0 °F 33% 30.24 in 10.0 mi Variable 5.8 mph - N/A   Clear
3:58 PM 93.4 °F 92.8 °F 59.4 °F 32% 30.22 in 10.0 mi West 5.8 mph - N/A   Clear
4:58 PM 94.6 °F 93.2 °F 57.0 °F 28% 30.21 in 10.0 mi West 8.1 mph - N/A   Clear
5:58 PM 96.1 °F 93.8 °F 53.2 °F 24% 30.19 in 10.0 mi WNW 2.3 mph - N/A   Clear
6:58 PM 96.3 °F - 46.6 °F 18% 30.18 in 10.0 mi NNW 5.8 mph - N/A   Clear
7:58 PM 91.8 °F 90.6 °F 57.9 °F 32% 30.17 in 10.0 mi WNW 5.8 mph - N/A   Clear
8:58 PM 81.9 °F 83.4 °F 64.2 °F 55% 30.18 in 10.0 mi NW 3.5 mph - N/A   Clear
9:58 PM 81.1 °F 82.9 °F 65.1 °F 58% 30.20 in 10.0 mi SE 4.6 mph - N/A   Clear
10:58 PM 75.0 °F - 65.3 °F 72% 30.21 in 10.0 mi Calm Calm - N/A   Clear
11:58 PM 74.7 °F - 62.2 °F 65% 30.21 in 10.0 mi NE 2.3 mph - N/A   Clear